CZ-4C DEB, 43412

Orbit data source: Space-Track

CZ-4C DEB, 43412 is space debris in SSO originally from a launch on Wed, 20 Nov 2013 UTC launched from the Taiyaun Space Center, China (TSC). Debris objects in space refer to the collection of defunct objects orbiting the Earth. Examples of debris include non-operational satellites, rocket bodies, and fragments generated from explosions, collisions, or faulty payload assembly.

Loading next visibility...
Identifier
43412, 2013-065C
Orbit
SSO
Country
Flag of CNCN / PRC
Related business
Manufacturer
SAST
Mission
Spacecraft
Bus & Motor
Unknown
Mass
Unknown
Launch date (UTC)
2013-11-20 (13 years ago)
Launch vehicle
Unknown
Launch site
Taiyaun Space Center, China (TSC)
Object type
Payload
Rocket body
Debris
Shape & HBR
Unknown shape, 0.1 m
Radar Cross Section
Small (<0.1 m²)

Expand to show TLE details & history
Last TLE update: 3 days ago

TLE from 3 days ago
0 CZ-4C DEB
1 43412U 13065C   26170.55609251  .00000092  00000-0  34018-3 0  9998
2 43412 100.5957 293.2246 0132246 255.3605 103.2815 13.17712336596638
Epoch: 2026-06-19T13:20Z
TLE epoch observation values (Epoch: 2026-06-19T13:20:46.392Z)
Latitude
0.00001°
Longitude
-174.75208°
Altitude
1,220.436 km
Speed
7.233 km/s
True Right ascension
19h 32m 53s
True Declination
0° 00' 00"
Sunlit
Object was in full shadow at epoch
Visualization orbit readout
Latitude
Unknown
Longitude
Unknown
Altitude
Unknown
Speed
Unknown
Apparent Right ascension
Unknown
Apparent Declination
Unknown
Sunlit
N/A
Visualization observer readout
Local Sidereal Time
21:32:02
Azimuth
Unknown
Elevation
Unknown
Doppler factor
Unknown
Orbital elements
Apogee altitude
1,290.959 km
Perigee altitude
1,090.765 km
Semi-major axis
7,568.999 km
Eccentricity
0.01322
Inclination
100.5957°
RAAN
293.2246°
Arg. of periapsis
255.3605°
True anomaly
104.75065°
Mean anomaly
103.2815°
Eccentric anomaly
104.01665°
Mean motion
3.29599 °/min
Orbital period
109.22 mins
BSTAR
0.00034018
Loading maneuver chart data...
Computing Atmospheric mass density...
Loading historical data...
Loading historical data...
Loading historical data...
Loading historical data...
Loading historical data...
Loading historical data...
Loading historical data...

Documentation

Showing up to 5 results
|